Location: Unspecified
(0.0000°N, 0.0000°E)
Time: 03:09:13
(UTC+00:00)

N. Korean satellite - Pass Details

Date: 21 May 2017
Orbit: 461 x 513 km, 97.2° (Epoch: 17 December)

Event Time Altitude Azimuth Distance (km) Brightness Sun altitude
Rises 06:50:37 0° 3° (N) 2,576 10.6 12.7°
Reaches altitude 10° 06:52:44 10° 359° (N) 1,687 9.6 13.1°
Drops below altitude 10° 06:59:47 10° 203° (SSW) 1,663 8.9 14.8°
Enters shadow 07:14:32 -32° 190° (S) 7,627 12.2 18.2°
Exits shadow 07:36:43 -76° 161° (SSE) 12,867 13.5 23.4°
Maximum altitude 18:44:42 89° 256° (WSW) 493 6.5 -11.3°
